| time (UTC) | temp F | wind direction | speed MPH | gust MPH | rain 1hr in | rain 24hr in | rain mn in | humidity % | barometer mb |
| 20260508121547 | 56 | 171 | 0.0 | 0.0 | 0.00 | 0.00 | 0.00 | 85 | 1013.5 |
| 20260508120049 | 56 | 171 | 0.0 | 2.0 | 0.00 | 0.00 | 0.00 | 85 | 1013.6 |
| 20260508114551 | 56 | 209 | 0.0 | 2.0 | 0.00 | 0.00 | 0.00 | 85 | 1013.5 |
| 20260508113046 | 56 | 173 | 2.0 | 5.0 | 0.00 | 0.00 | 0.00 | 85 | 1013.5 |
| 20260508111550 | 56 | 230 | 0.0 | 2.0 | 0.00 | 0.00 | 0.00 | 85 | 1013.7 |
| 20260508110044 | 56 | 32 | 0.0 | 2.0 | 0.00 | 0.00 | 0.00 | 85 | 1013.9 |
| 20260508104547 | 56 | 142 | 0.0 | 3.0 | 0.00 | 0.00 | 0.00 | 85 | 1013.4 |
| 20260508103046 | 57 | 215 | 0.0 | 4.0 | 0.00 | 0.00 | 0.00 | 85 | 1013.4 |
| 20260508101546 | 57 | 205 | 2.0 | 5.0 | 0.00 | 0.00 | 0.00 | 85 | 1013.3 |
| 20260508100040 | 57 | 170 | 0.0 | 0.0 | 0.00 | 0.00 | 0.00 | 85 | 1013.3 |
| 20260508094546 | 57 | 170 | 0.0 | 2.0 | 0.00 | 0.00 | 0.00 | 85 | 1013.2 |
| 20260508093042 | 57 | 138 | 0.0 | 3.0 | 0.00 | 0.00 | 0.00 | 85 | 1013.2 |
| 20260508091547 | 58 | 150 | 1.0 | 3.0 | 0.00 | 0.00 | 0.00 | 85 | 1013.2 |
| 20260508090051 | 58 | 116 | 0.0 | 0.0 | 0.00 | 0.00 | 0.00 | 85 | 1013.4 |
| 20260508084535 | 58 | 116 | 0.0 | 0.0 | 0.00 | 0.00 | 0.00 | 85 | 1013.3 |
| 20260508083033 | 58 | 116 | 1.0 | 2.0 | 0.00 | 0.00 | 0.00 | 85 | 1013.4 |
| 20260508081538 | 58 | 116 | 1.0 | 3.0 | 0.00 | 0.00 | 0.00 | 84 | 1013.4 |
| 20260508080029 | 59 | 285 | 0.0 | 0.0 | 0.00 | 0.00 | 0.00 | 84 | 1013.8 |
| 20260508074525 | 59 | 285 | 0.0 | 0.0 | 0.00 | 0.00 | 0.00 | 84 | 1014.3 |
| 20260508073026 | 59 | 285 | 0.0 | 0.0 | 0.00 | 0.00 | 0.00 | 84 | 1014.6 |
| 20260508071526 | 59 | 285 | 0.0 | 2.0 | 0.00 | 0.00 | 0.00 | 84 | 1014.6 |
| 20260508070036 | 59 | 207 | 0.0 | 2.0 | 0.00 | 0.00 | 0.00 | 83 | 1014.4 |
| 20260508064530 | 59 | 167 | 0.0 | 0.0 | 0.00 | 0.00 | 0.00 | 83 | 1014.4 |
| 20260508063022 | 59 | 167 | 0.0 | 0.0 | 0.00 | 0.00 | 0.00 | 83 | 1014.5 |
| 20260508061523 | 59 | 171 | 1.0 | 3.0 | 0.00 | 0.00 | 0.00 | 84 | 1014.5 |
| 20260508060024 | 59 | 219 | 0.0 | 0.0 | 0.00 | 0.00 | 0.00 | 84 | 1014.6 |
| 20260508054527 | 58 | 219 | 0.0 | 0.0 | 0.00 | 0.00 | 0.00 | 84 | 1014.8 |
| 20260508053016 | 59 | 219 | 0.0 | 3.0 | 0.00 | 0.00 | 0.00 | 84 | 1015.0 |
| 20260508051514 | 59 | 214 | 1.0 | 3.0 | 0.00 | 0.00 | 0.00 | 83 | 1015.2 |
| 20260508050013 | 59 | 193 | 1.0 | 4.0 | 0.00 | 0.00 | 0.00 | 82 | 1015.1 |
| 20260508044512 | 59 | 153 | 0.0 | 0.0 | 0.00 | 0.00 | 0.00 | 80 | 1015.0 |
| 20260508043015 | 60 | 153 | 0.0 | 2.0 | 0.00 | 0.00 | 0.00 | 80 | 1014.8 |
| 20260508041511 | 60 | 144 | 1.0 | 3.0 | 0.00 | 0.00 | 0.00 | 79 | 1014.7 |
| 20260508040019 | 60 | 161 | 1.0 | 3.0 | 0.00 | 0.00 | 0.00 | 79 | 1015.1 |
| 20260508034510 | 60 | 142 | 0.0 | 0.0 | 0.00 | 0.00 | 0.00 | 80 | 1014.7 |
| 20260508033009 | 60 | 142 | 0.0 | 3.0 | 0.00 | 0.00 | 0.00 | 80 | 1014.6 |
| 20260508031510 | 60 | 120 | 0.0 | 0.0 | 0.00 | 0.00 | 0.00 | 80 | 1014.6 |
| 20260508030012 | 61 | 120 | 0.0 | 1.0 | 0.00 | 0.00 | 0.00 | 79 | 1014.1 |
| 20260508024512 | 61 | 120 | 0.0 | 1.0 | 0.00 | 0.00 | 0.00 | 79 | 1014.1 |
| 20260508023008 | 61 | 122 | 0.0 | 3.0 | 0.00 | 0.00 | 0.00 | 79 | 1014.1 |
| 20260508021511 | 62 | 109 | 2.0 | 4.0 | 0.00 | 0.00 | 0.00 | 78 | 1014.0 |
| 20260508020010 | 62 | 140 | 2.0 | 4.0 | 0.00 | 0.00 | 0.00 | 77 | 1014.0 |
| 20260508014506 | 62 | 122 | 1.0 | 3.0 | 0.00 | 0.00 | 0.00 | 77 | 1014.0 |
| 20260508013007 | 63 | 157 | 1.0 | 2.0 | 0.00 | 0.00 | 0.00 | 76 | 1014.0 |
| 20260508011512 | 63 | 178 | 1.0 | 3.0 | 0.00 | 0.00 | 0.00 | 75 | 1014.1 |
| 20260508010006 | 63 | 167 | 0.0 | 2.0 | 0.00 | 0.00 | 0.00 | 74 | 1013.9 |
| 20260508004504 | 64 | 167 | 1.0 | 2.0 | 0.00 | 0.00 | 0.00 | 73 | 1014.0 |
| 20260508003005 | 64 | 175 | 1.0 | 3.0 | 0.00 | 0.00 | 0.00 | 73 | 1014.1 |
| 20260508001506 | 64 | 175 | 2.0 | 3.0 | 0.00 | 0.00 | 0.00 | 72 | 1014.2 |
| 20260508000001 | 65 | 162 | 2.0 | 5.0 | 0.00 | 0.00 | 0.00 | 70 | 1014.3 |
| 20260507234602 | 65 | 185 | 2.0 | 4.0 | 0.00 | 0.00 | 0.00 | 70 | 1014.5 |
| 20260507233100 | 66 | 179 | 0.0 | 3.0 | 0.00 | 0.00 | 0.00 | 69 | 1014.4 |
| 20260507231558 | 65 | 178 | 2.0 | 5.0 | 0.00 | 0.00 | 0.00 | 68 | 1014.4 |
| 20260507230057 | 66 | 165 | 3.0 | 5.0 | 0.00 | 0.00 | 0.00 | 69 | 1014.5 |
| 20260507224601 | 66 | 198 | 4.0 | 6.0 | 0.00 | 0.10 | 0.00 | 68 | 1014.7 |
| 20260507223058 | 66 | 161 | 4.0 | 8.0 | 0.00 | 0.10 | 0.00 | 67 | 1014.8 |
| 20260507221554 | 66 | 169 | 5.0 | 7.0 | 0.00 | 0.10 | 0.00 | 67 | 1014.9 |
| 20260507220054 | 67 | 183 | 4.0 | 7.0 | 0.00 | 0.10 | 0.00 | 63 | 1014.9 |
| 20260507214555 | 68 | 134 | 3.0 | 7.0 | 0.00 | 0.10 | 0.00 | 58 | 1014.9 |
| 20260507213056 | 68 | 128 | 3.0 | 7.0 | 0.00 | 0.10 | 0.00 | 54 | 1015.1 |
| 20260507211553 | 68 | 95 | 2.0 | 6.0 | 0.00 | 0.10 | 0.00 | 56 | 1015.4 |
| 20260507210048 | 68 | 101 | 2.0 | 4.0 | 0.00 | 0.10 | 0.00 | 56 | 1015.8 |
| 20260507204548 | 68 | 113 | 3.0 | 8.0 | 0.00 | 0.10 | 0.00 | 55 | 1015.9 |
| 20260507203047 | 68 | 91 | 7.0 | 11.0 | 0.00 | 0.10 | 0.00 | 55 | 1015.8 |
| 20260507201549 | 69 | 65 | 4.0 | 11.0 | 0.00 | 0.10 | 0.00 | 54 | 1015.6 |
| 20260507200046 | 69 | 96 | 5.0 | 11.0 | 0.00 | 0.10 | 0.00 | 56 | 1015.7 |
| 20260507194544 | 68 | 140 | 5.0 | 10.0 | 0.00 | 0.10 | 0.00 | 55 | 1016.1 |
| 20260507193044 | 69 | 70 | 7.0 | 12.0 | 0.00 | 0.10 | 0.00 | 54 | 1016.2 |
| 20260507191544 | 69 | 78 | 2.0 | 9.0 | 0.00 | 0.10 | 0.00 | 53 | 1016.6 |
| 20260507190042 | 70 | 51 | 3.0 | 7.0 | 0.00 | 0.10 | 0.00 | 55 | 1017.1 |
| 20260507184540 | 69 | 89 | 4.0 | 12.0 | 0.00 | 0.10 | 0.00 | 55 | 1017.0 |
| 20260507183049 | 69 | 95 | 4.0 | 12.0 | 0.00 | 0.10 | 0.00 | 55 | 1017.0 |
| 20260507181537 | 69 | 36 | 7.0 | 13.0 | 0.00 | 0.10 | 0.00 | 59 | 1016.9 |
| 20260507180045 | 68 | 339 | 5.0 | 11.0 | 0.00 | 0.10 | 0.00 | 58 | 1017.1 |
| 20260507174532 | 67 | 53 | 8.0 | 13.0 | 0.00 | 0.10 | 0.00 | 60 | 1017.3 |
| 20260507173035 | 67 | 360 | 7.0 | 13.0 | 0.00 | 0.10 | 0.00 | 60 | 1017.5 |
| 20260507171526 | 65 | 32 | 5.0 | 11.0 | 0.00 | 0.10 | 0.00 | 63 | 1017.8 |
| 20260507170041 | 65 | 15 | 5.0 | 11.0 | 0.00 | 0.10 | 0.00 | 65 | 1018.2 |
| 20260507164522 | 64 | 37 | 4.0 | 11.0 | 0.00 | 0.10 | 0.00 | 66 | 1018.7 |
| 20260507163020 | 64 | 360 | 4.0 | 8.0 | 0.00 | 0.10 | 0.00 | 67 | 1019.0 |
| 20260507161518 | 63 | 346 | 3.0 | 10.0 | 0.00 | 0.10 | 0.00 | 69 | 1019.0 |
| 20260507160016 | 63 | 9 | 3.0 | 9.0 | 0.00 | 0.10 | 0.00 | 73 | 1019.1 |
| 20260507154512 | 61 | 44 | 3.0 | 11.0 | 0.00 | 0.10 | 0.00 | 71 | 1018.9 |
| 20260507153010 | 61 | 47 | 5.0 | 11.0 | 0.00 | 0.10 | 0.00 | 73 | 1018.9 |
| 20260507151516 | 61 | 338 | 3.0 | 9.0 | 0.00 | 0.10 | 0.00 | 75 | 1019.2 |
| 20260507150007 | 60 | 65 | 5.0 | 10.0 | 0.00 | 0.10 | 0.00 | 77 | 1019.3 |
| 20260507144505 | 60 | 350 | 3.0 | 6.0 | 0.00 | 0.14 | 0.00 | 78 | 1019.5 |
| 20260507143001 | 59 | 360 | 3.0 | 9.0 | 0.00 | 0.14 | 0.00 | 82 | 1019.5 |
| 20260507141600 | 58 | 42 | 3.0 | 7.0 | 0.00 | 0.14 | 0.00 | 85 | 1019.6 |
| 20260507134556 | 55 | 351 | 3.0 | 7.0 | 0.00 | 0.14 | 0.00 | 86 | 1019.7 |
| 20260507133056 | 54 | 299 | 2.0 | 6.0 | 0.00 | 0.14 | 0.00 | 85 | 1019.7 |
| 20260507131555 | 53 | 300 | 1.0 | 4.0 | 0.00 | 0.14 | 0.00 | 85 | 1019.7 |
| 20260507130104 | 52 | 314 | 1.0 | 4.0 | 0.00 | 0.14 | 0.00 | 85 | 1019.6 |
| 20260507124558 | 51 | 207 | 1.0 | 3.0 | 0.00 | 0.14 | 0.00 | 86 | 1019.9 |
| 20260507123056 | 51 | 207 | 1.0 | 3.0 | 0.00 | 0.14 | 0.00 | 86 | 1019.7 |